FW1929 Weather Reports


time (UTC)temp
C
wind
direction
speed
KPH
gust
KPH
rain 1hr
cm
rain 24hr
cm
rain mn
cm
humidity
%
barometer
mb
20260507113131 0 4 4.8 12.9 0.00 0.46 0.00 72 1030.4
20260507111507 0 4 6.4 14.5 0.00 0.46 0.00 73 1030.7
20260507110058 0 4 9.7 14.5 0.00 0.46 0.00 73 1030.8
20260507104519 -1 4 3.2 8.0 0.00 0.46 0.00 75 1030.9
20260507103105 0 4 6.4 14.5 0.00 0.46 0.00 74 1030.8
20260507101532 0 4 6.4 14.5 0.00 0.46 0.00 76 1031.1
20260507100124 -1 4 8.0 14.5 0.00 0.46 0.00 77 1031.2
20260507094555 -1 4 4.8 12.9 0.00 0.46 0.00 78 1031.2
20260507093005 -1 4 4.8 12.9 0.00 0.46 0.00 78 1030.9
20260507091555 -1 9 4.8 12.9 0.00 0.46 0.00 79 1030.9
20260507090007 0 4 3.2 14.5 0.00 0.46 0.00 77 1030.7
20260507084603 0 4 4.8 14.5 0.00 0.46 0.00 77 1030.5
20260507083018 0 4 6.4 14.5 0.00 0.46 0.00 77 1030.6
20260507081557 0 8 9.7 14.5 0.00 0.46 0.00 77 1030.7
20260507080019 0 4 9.7 14.5 0.00 0.46 0.00 76 1030.8
20260507074615 0 4 8.0 14.5 0.00 0.46 0.00 76 1031.0
20260507073041 0 4 3.2 17.7 0.00 0.46 0.00 80 1031.2
20260507071632 0 4 4.8 14.5 0.00 0.46 0.00 82 1031.1
20260507070049 0 4 1.6 6.4 0.00 0.46 0.00 81 1031.2
20260507064506 0 4 3.2 12.9 0.00 0.46 0.00 81 1031.0
20260507063055 0 4 8.0 14.5 0.00 0.46 0.00 82 1031.0
20260507061506 0 4 6.4 22.5 0.00 0.46 0.00 84 1030.8
20260507060056 0 8 4.8 19.3 0.00 0.46 0.00 85 1030.8
20260507054534 0 4 4.8 12.9 0.00 0.46 0.46 86 1030.6
20260507053115 0 4 3.2 14.5 0.00 0.46 0.46 87 1030.6
20260507051535 0 4 3.2 12.9 0.00 0.46 0.46 89 1030.5
20260507050129 0 4 3.2 14.5 0.00 0.46 0.46 89 1030.6
20260507044554 0 4 4.8 12.9 0.00 0.46 0.46 90 1030.6
20260507043001 -1 4 6.4 12.9 0.00 0.46 0.46 91 1030.6
20260507041601 -1 4 8.0 14.5 0.00 0.46 0.46 91 1030.5
20260507040025 -1 8 6.4 9.7 0.00 0.46 0.46 92 1030.6
20260507034621 -1 4 1.6 9.7 0.00 0.46 0.46 92 1030.7
20260507033044 -1 4 3.2 6.4 0.00 0.46 0.46 92 1030.6
20260507031625 -1 4 0.0 4.8 0.00 0.46 0.46 92 1030.5
20260507030035 -1 4 4.8 8.0 0.00 0.46 0.46 92 1030.3
20260507024613 -2 4 1.6 6.4 0.00 0.48 0.46 92 1030.2
20260507023034 -2 4 6.4 8.0 0.00 0.48 0.46 93 1030.0
20260507021543 -2 8 3.2 6.4 0.00 0.48 0.46 92 1030.1
20260507020120 -2 4 1.6 4.8 0.00 0.48 0.46 92 1030.0
20260507014541 -1 4 0.0 0.0 0.00 0.53 0.46 92 1030.0
20260507013130 -1 4 1.6 3.2 0.00 0.53 0.46 92 1030.2
20260507011540 -1 4 0.0 4.8 0.03 0.53 0.46 92 1030.4
20260507010121 -1 4 1.6 6.4 0.03 0.53 0.46 92 1030.2
20260507004536 -1 4 0.0 6.4 0.05 0.61 0.46 92 1030.1
20260507003128 -1 4 3.2 6.4 0.05 0.61 0.46 92 1030.2
20260507001551 -1 4 0.0 3.2 0.05 0.58 0.43 92 1030.4
20260507000013 -1 4 0.0 4.8 0.08 0.58 0.43 92 1030.4
20260506234627 -1 4 1.6 8.0 0.08 0.64 0.41 92 1030.3
20260506233027 -1 4 0.0 0.0 0.08 0.61 0.38 92 1030.3
20260506231619 -1 4 0.0 1.6 0.10 0.61 0.38 92 1030.0
20260506230034 -1 4 1.6 6.4 0.10 0.58 0.36 92 1029.6
20260506224625 -1 4 0.0 8.0 0.10 0.56 0.33 92 1029.6
20260506223040 -1 4 3.2 9.7 0.10 0.53 0.30 92 1029.4
20260506221631 -1 4 6.4 12.9 0.10 0.51 0.28 93 1029.4
20260506220052 -1 4 9.7 17.7 0.10 0.48 0.25 93 1029.1
20260506214508 -1 4 6.4 16.1 0.05 0.43 0.20 93 1029.2
20260506213107 -1 4 6.4 16.1 0.08 0.43 0.20 93 1029.0
20260506211516 -1 4 11.3 20.9 0.08 0.41 0.18 93 1029.0
20260506210111 -1 4 6.4 16.1 0.05 0.38 0.15 93 1029.1
20260506204547 -1 4 8.0 17.7 0.05 0.38 0.15 93 1029.0
20260506203129 -1 4 11.3 20.9 0.05 0.36 0.13 93 1028.5
20260506201544 -1 4 14.5 22.5 0.03 0.33 0.10 93 1028.3
20260506200011 -2 4 9.7 16.1 0.03 0.33 0.10 93 1028.3
20260506194622 -2 4 8.0 17.7 0.03 0.33 0.10 93 1028.4
20260506193018 -2 4 14.5 22.5 0.00 0.30 0.08 93 1028.2
20260506191611 -2 359 9.7 20.9 0.00 0.30 0.08 93 1028.4
20260506190026 -2 4 12.9 20.9 0.00 0.30 0.08 93 1027.5
20260506184624 -2 4 14.5 24.1 0.00 0.30 0.08 93 1027.5
20260506183100 -2 8 17.7 30.6 0.03 0.30 0.08 93 1027.3
20260506181509 -2 4 20.9 32.2 0.03 0.30 0.08 93 1027.0
20260506180056 -2 4 24.1 35.4 0.05 0.30 0.08 93 1026.6
20260506174508 -2 4 20.9 33.8 0.05 0.30 0.08 92 1026.4
20260506173112 -2 4 17.7 30.6 0.05 0.28 0.05 92 1026.6
20260506171533 -2 4 17.7 27.4 0.05 0.28 0.05 92 1026.6
20260506170116 -2 8 14.5 24.1 0.03 0.25 0.03 92 1026.0
20260506164531 -1 4 11.3 16.1 0.03 0.25 0.03 92 1025.8
20260506163122 -1 4 4.8 16.1 0.00 0.23 0.00 92 1025.5
20260506161538 -1 8 12.9 17.7 0.00 0.23 0.00 92 1025.4
20260506160104 -2 10 9.7 20.9 0.00 0.23 0.00 92 1025.2
20260506154512 -2 4 11.3 20.9 0.00 0.23 0.00 92 1025.1
20260506153045 -2 4 6.4 14.5 0.00 0.23 0.00 93 1024.9
20260506151559 -2 8 12.9 19.3 0.00 0.23 0.00 92 1024.9
20260506150040 -2 8 12.9 20.9 0.00 0.23 0.00 92 1025.0
20260506144539 -2 4 11.3 27.4 0.00 0.23 0.00 92 1024.7
20260506143045 -2 4 19.3 30.6 0.00 0.23 0.00 92 1024.6
20260506141533 -2 4 22.5 33.8 0.00 0.23 0.00 92 1024.1
20260506140036 -2 359 20.9 35.4 0.00 0.23 0.00 92 1023.9
20260506134528 -2 4 19.3 32.2 0.00 0.23 0.00 92 1023.8
20260506133027 -2 4 17.7 32.2 0.00 0.23 0.00 92 1023.5
20260506131526 -2 4 22.5 35.4 0.00 0.23 0.00 91 1023.3
20260506130018 -2 4 16.1 25.7 0.00 0.23 0.00 91 1022.8
20260506124515 -2 4 11.3 20.9 0.00 0.23 0.00 91 1022.2
20260506123012 -2 8 8.0 25.7 0.00 0.23 0.00 91 1022.1
20260506121509 -2 4 0.0 0.0 0.00 0.23 0.00 91 1021.9
20260506120007 -2 4 0.0 0.0 0.00 0.23 0.00 92 1021.5
20260506114505 -2 4 0.0 0.0 0.00 0.23 0.00 92 1021.3